Погода в Северном

Россия / Оренбургская область     54°05′34″N   52°32′24″E
темп.,
°C
ветер,
м/с
пор.,
м/с
влажн.,
%
обл.,
%
осадки,
мм/ч
давл.,
гПа
погр.,
м
25 января, пн
пн2523:00−1юз6139597 0.1 1029388
02:00−2юз6129799 0.0 1030375
05:00−3ююз6998100 0.0 1031369
08:00−3ююз6997100 0.0 1031506
11:00−2ююз5997100 0.1 1032605
14:00−1ююз5994100 0.1 1032688
17:00−2ю5996100 0.1 1031395
20:00−4ю6109799 0.1 1031510
26 января, вт
вт2623:00−3ю41097100 0.1 1031595
02:00−3ююз61095100 0.1 1031699
05:00−2ю51094100 0.1 1030640
08:00−3ю51096100 0.1 1030481
11:00−3ю6994100 0.1 1030598
14:00−3ю61094100 0.1 1030567
17:00−4ю71194100 0.1 1030501
20:00−6ю61195100 0.0 1030342
27 января, ср
ср2723:00−8ю51295100 0.1 1029320
02:00−8ю51196100 0.0 1030294
05:00−9ю51097100 0.1 1030242
08:00−10ююв51197100 0.0 1030239
11:00−10ююв61296100 0.1 1029299
14:00−7ю61295100 0.0 1029367
17:00−7ю61294100 0.1 1028354
20:00−8ю51293100 0.0 1028319
28 января, чт
чт2823:00−8ю61293100 0.0 1027280
02:00−9ю51292100 0.0 1027293
05:00−8ю51292100 0.0 1026307
08:00−9ююв61293100 0.0 1025285
11:00−9ююв61291100 0.0 1025306
14:00−7ююв61192100 0.0 1024335
17:00−7ююв61191100 0.0 1023314
20:00−8юв51290100 0.0 1023274
29 января, пт
пт2923:00−9юв51191100 0.0 1022253
02:00−9юв51090100 0.0 1021258
05:00−9юв51190100 0.0 1019260
08:00−10юв61289100 0.0 1017279
11:00−7юв61388100 0.0 1016366
14:00−5юв61285100 0.0 1014431
17:00−4юв71586100 0.0 1012561
20:00−4юв71395100 0.5 1010520